Location: Marcé
(47.5801°N, 0.3280°W)
Time: 09:23:21
(UTC+01:00)

Tiros 1 despin weight - Pass Details

Date: 16 December 2021
Orbit: 592 x 641 km, 48.2° (Epoch: 25 January)

Event Time Altitude Azimuth Distance (km) Brightness Sun altitude
Rises 16:12:56 0° 277° (W) 2,834 ? 6.6°
Reaches altitude 10° 16:16:43 10° 245° (WSW) 1,921 ? 6.1°
Maximum altitude 16:18:11 12° 225° (SW) 1,820 ? 5.9°
Drops below altitude 10° 16:19:39 10° 206° (SSW) 1,914 ? 5.8°
Sets 16:23:25 0° 173° (S) 2,809 ? 5.3°
